Weather History for Gainesville, FL

Change the Weather History Date:

Saturday, July 6, 2013

  Actual Average Record
Temperature  
Mean Temperature 82 °F 81 °F  
Max Temperature 91 °F 91 °F 99 °F (1931)
Min Temperature 73 °F 71 °F 62 °F (1906)
Degree Days  
Heating Degree Days 0 0  
Month to date heating degree days 0 0  
Since 1 June heating degree days 0 0  
Since 1 July heating degree days 0 0  
Cooling Degree Days 17 16  
Month to date cooling degree days 94 96  
Year to date cooling degree days 1114 1045  
Since 1 June cooling degree days 582 535  
Growing Degree Days 32 (Base 50)    
Moisture  
Dew Point 72 °F    
Average Humidity 75    
Maximum Humidity 94    
Minimum Humidity 56    
Precipitation  
Precipitation T in 0.22 in 4.96 in (1996)
Month to date precipitation 3.10 1.29  
Year to date precipitation 20.35 24.40  
Snow  
Snow 0.00 in 0.00 in 0.00 in ()
Month to date snowfall 0.0 0.0  
Since 1 June snowfall 0.0 0.0  
Since 1 July snowfall 0.0 0.0  
Snow Depth 0.00 in    
Sea Level Pressure  
Sea Level Pressure 30.11 in    
Wind  
Wind Speed 7 mph (ESE)    
Max Wind Speed 15 mph    
Max Gust Speed 20 mph    
Visibility 9 miles    
Events      
T = Trace of Precipitation, MM = Missing Value Source: NWS Daily Summary

Daily Weather History Graph

Daily Weather History Graph

Search for Another Location

Airport:

Trip Planner

Search our weather history database for the weather conditions in past years. The results will help you decide how hot, cold, wet, or windy it might be!

Date:

Astronomy

Jul. 06, 2013 Rise Set
Actual Time 6:34 AM EDT 8:33 PM EDT
Civil Twilight 6:07 AM EDT 9:00 PM EDT
Nautical Twilight 5:34 AM EDT 9:33 PM EDT
Astronomical Twilight 4:59 AM EDT 10:07 PM EDT
Moon 5:15 AM EDT (7/6) 7:17 PM EDT (7/6)
Length of Visible Light 14h 52m
Length of Day
13h 58m
Waning Crescent, 2% of the Moon is Illuminated
Jul 6
Waning Crescent
Jul 8
New
Jul 15
First Quarter
Jul 22
Full
Jul 29
Last Quarter

Hourly Weather History & Observations

Time (EDT) Temp. Heat Index Dew Point Humidity Pressure Visibility Wind Dir Wind Speed Gust Speed Precip Events Conditions
12:53 AM 75.0 °F - 73.0 °F 94% 30.14 in 10.0 mi ESE 4.6 mph - N/A   Clear
1:53 AM 75.0 °F - 72.0 °F 90% 30.12 in 10.0 mi East 3.5 mph - N/A   Overcast
2:53 AM 73.9 °F - 72.0 °F 93% 30.11 in 8.0 mi Calm Calm - N/A   Mostly Cloudy
3:53 AM 73.0 °F - 71.1 °F 93% 30.10 in 8.0 mi Calm Calm - N/A   Overcast
4:53 AM 73.9 °F - 71.1 °F 91% 30.09 in 8.0 mi East 4.6 mph - N/A   Clear
5:53 AM 73.9 °F - 72.0 °F 93% 30.09 in 8.0 mi East 4.6 mph - N/A   Mostly Cloudy
6:28 AM 73.4 °F - 71.6 °F 94% 30.10 in 8.0 mi ESE 3.5 mph - N/A   Partly Cloudy
6:53 AM 73.9 °F - 72.0 °F 93% 30.10 in 7.0 mi Calm Calm - N/A   Scattered Clouds
7:38 AM 75.2 °F - 73.4 °F 94% 30.12 in 8.0 mi East 3.5 mph - N/A   Mostly Cloudy
7:53 AM 75.9 °F - 73.9 °F 94% 30.12 in 8.0 mi Calm Calm - N/A   Overcast
8:19 AM 77.0 °F - 73.4 °F 89% 30.13 in 10.0 mi ESE 6.9 mph - N/A   Mostly Cloudy
8:34 AM 78.8 °F - 73.4 °F 83% 30.13 in 10.0 mi ESE 8.1 mph - N/A   Scattered Clouds
8:53 AM 79.0 °F - 73.9 °F 84% 30.13 in 10.0 mi ESE 8.1 mph - N/A   Scattered Clouds
9:53 AM 82.0 °F 87.9 °F 73.9 °F 76% 30.14 in 10.0 mi ESE 11.5 mph - N/A   Scattered Clouds
10:02 AM 82.4 °F 88.2 °F 73.4 °F 74% 30.14 in 10.0 mi SE 10.4 mph - N/A   Mostly Cloudy
10:11 AM 82.4 °F 88.2 °F 73.4 °F 74% 30.14 in 10.0 mi SE 12.7 mph - N/A   Scattered Clouds
10:53 AM 84.9 °F 91.4 °F 73.0 °F 67% 30.13 in 10.0 mi ESE 11.5 mph - N/A   Partly Cloudy
11:53 AM 86.0 °F 92.2 °F 72.0 °F 63% 30.14 in 10.0 mi SE 12.7 mph - N/A   Scattered Clouds
12:53 PM 88.0 °F 94.7 °F 72.0 °F 59% 30.12 in 10.0 mi ESE 9.2 mph - N/A   Partly Cloudy
1:53 PM 88.0 °F 93.8 °F 71.1 °F 57% 30.10 in 10.0 mi ESE 10.4 mph - N/A   Scattered Clouds
2:53 PM 90.0 °F 96.4 °F 71.1 °F 54% 30.09 in 10.0 mi North - - 0.00 in   Scattered Clouds
3:53 PM 90.0 °F 96.4 °F 71.1 °F 54% 30.07 in 10.0 mi SE 10.4 mph 17.3 mph N/A   Scattered Clouds
4:53 PM 88.0 °F 94.7 °F 72.0 °F 59% 30.06 in 10.0 mi SE 10.4 mph 16.1 mph N/A   Partly Cloudy
5:53 PM 88.0 °F 93.8 °F 71.1 °F 57% 30.06 in 10.0 mi ESE 12.7 mph 17.3 mph N/A   Mostly Cloudy
6:53 PM 86.0 °F 92.2 °F 72.0 °F 63% 30.05 in 10.0 mi East 12.7 mph - N/A   Mostly Cloudy
7:53 PM 84.0 °F 89.6 °F 72.0 °F 67% 30.07 in 10.0 mi ESE 9.2 mph - N/A   Partly Cloudy
8:53 PM 80.1 °F 84.2 °F 73.0 °F 79% 30.08 in 10.0 mi East 6.9 mph - N/A   Clear
9:53 PM 79.0 °F - 73.0 °F 82% 30.11 in 10.0 mi North - - N/A   Clear
10:53 PM 78.1 °F - 73.0 °F 84% 30.13 in 10.0 mi North - - N/A   Clear
11:53 PM 75.9 °F - 73.0 °F 91% 30.13 in 10.0 mi North - - N/A   Clear